| time (UTC) | temp F | wind direction | speed MPH | gust MPH | rain 1hr in | rain 24hr in | rain mn in | humidity % | barometer mb |
| 20260905131622 | 79 | 180 | 2.0 | 5.0 | 0.00 | 0.00 | 0.00 | 76 | 1014.0 |
| 20260905131117 | 78 | 197 | 1.0 | 4.0 | 0.00 | 0.00 | 0.00 | 76 | 1013.9 |
| 20260905130611 | 78 | 192 | 1.0 | 4.0 | 0.00 | 0.00 | 0.00 | 76 | 1013.8 |
| 20260905125602 | 78 | 176 | 1.0 | 4.0 | 0.00 | 0.00 | 0.00 | 76 | 1013.7 |
| 20260905125557 | 78 | 184 | 1.0 | 4.0 | 0.00 | 0.00 | 0.00 | 76 | 1013.6 |
| 20260905124552 | 78 | 178 | 1.0 | 4.0 | 0.00 | 0.00 | 0.00 | 76 | 1013.5 |
| 20260905124047 | 78 | 174 | 2.0 | 6.0 | 0.00 | 0.00 | 0.00 | 76 | 1013.4 |
| 20260905123541 | 78 | 182 | 1.0 | 6.0 | 0.00 | 0.00 | 0.00 | 76 | 1013.3 |
| 20260905123041 | 78 | 179 | 1.0 | 5.0 | 0.00 | 0.00 | 0.00 | 76 | 1013.4 |
| 20260905122540 | 78 | 163 | 2.0 | 5.0 | 0.00 | 0.00 | 0.00 | 76 | 1013.5 |
| 20260905122034 | 78 | 176 | 2.0 | 4.0 | 0.00 | 0.00 | 0.00 | 76 | 1013.5 |
| 20260905121531 | 78 | 161 | 2.0 | 4.0 | 0.00 | 0.00 | 0.00 | 76 | 1013.5 |
| 20260905121021 | 78 | 174 | 2.0 | 3.0 | 0.00 | 0.00 | 0.00 | 76 | 1013.5 |
| 20260905120510 | 78 | 188 | 2.0 | 6.0 | 0.00 | 0.00 | 0.00 | 76 | 1013.5 |
| 20260905120501 | 78 | 193 | 1.0 | 7.0 | 0.00 | 0.00 | 0.00 | 75 | 1013.4 |
| 20260905120106 | 78 | 217 | 2.0 | 6.0 | 0.00 | 0.00 | 0.00 | 75 | 1013.5 |
| 20260905114954 | 78 | 186 | 2.0 | 7.0 | 0.00 | 0.00 | 0.00 | 75 | 1013.4 |
| 20260905114443 | 78 | 188 | 2.0 | 6.0 | 0.00 | 0.00 | 0.00 | 75 | 1013.5 |
| 20260905113940 | 78 | 183 | 2.0 | 4.0 | 0.00 | 0.00 | 0.00 | 75 | 1013.5 |
| 20260905113430 | 78 | 184 | 1.0 | 4.0 | 0.00 | 0.00 | 0.00 | 75 | 1013.4 |
| 20260905112928 | 78 | 189 | 0.0 | 4.0 | 0.00 | 0.00 | 0.00 | 74 | 1013.5 |
| 20260905112424 | 78 | 185 | 0.0 | 0.0 | 0.00 | 0.00 | 0.00 | 74 | 1013.5 |
| 20260905111925 | 78 | 179 | 0.0 | 0.0 | 0.00 | 0.00 | 0.00 | 74 | 1013.4 |
| 20260905111417 | 78 | 178 | 0.0 | 0.0 | 0.00 | 0.00 | 0.00 | 74 | 1013.4 |
| 20260905110904 | 78 | 184 | 0.0 | 1.0 | 0.00 | 0.00 | 0.00 | 74 | 1013.3 |
| 20260905110856 | 78 | 189 | 0.0 | 3.0 | 0.00 | 0.00 | 0.00 | 74 | 1013.3 |
| 20260905105846 | 78 | 189 | 0.0 | 3.0 | 0.00 | 0.00 | 0.00 | 74 | 1013.4 |
| 20260905105338 | 78 | 188 | 0.0 | 2.0 | 0.00 | 0.00 | 0.00 | 73 | 1013.4 |
| 20260905104839 | 79 | 190 | 0.0 | 1.0 | 0.00 | 0.00 | 0.00 | 73 | 1013.3 |
| 20260905104339 | 79 | 188 | 0.0 | 1.0 | 0.00 | 0.00 | 0.00 | 73 | 1013.3 |
| 20260905103829 | 79 | 188 | 0.0 | 1.0 | 0.00 | 0.00 | 0.00 | 73 | 1013.4 |
| 20260905103319 | 79 | 187 | 0.0 | 2.0 | 0.00 | 0.00 | 0.00 | 73 | 1013.4 |
| 20260905102809 | 79 | 188 | 1.0 | 4.0 | 0.00 | 0.00 | 0.00 | 73 | 1013.5 |
| 20260905102259 | 79 | 187 | 1.0 | 4.0 | 0.00 | 0.00 | 0.00 | 72 | 1013.5 |
| 20260905101749 | 79 | 188 | 1.0 | 3.0 | 0.00 | 0.00 | 0.00 | 72 | 1013.4 |
| 20260905101239 | 79 | 190 | 1.0 | 3.0 | 0.00 | 0.00 | 0.00 | 72 | 1013.4 |
| 20260905100729 | 79 | 191 | 1.0 | 3.0 | 0.00 | 0.00 | 0.00 | 72 | 1013.3 |
| 20260905100219 | 79 | 220 | 1.0 | 4.0 | 0.00 | 0.00 | 0.00 | 72 | 1013.3 |
| 20260905095709 | 79 | 205 | 1.0 | 4.0 | 0.00 | 0.00 | 0.00 | 72 | 1013.3 |
| 20260905095159 | 80 | 191 | 1.0 | 3.0 | 0.00 | 0.00 | 0.00 | 72 | 1013.3 |
| 20260905095150 | 80 | 193 | 0.0 | 3.0 | 0.00 | 0.00 | 0.00 | 71 | 1013.3 |
| 20260905094149 | 80 | 195 | 0.0 | 1.0 | 0.00 | 0.00 | 0.00 | 71 | 1013.3 |
| 20260905093639 | 80 | 197 | 0.0 | 0.0 | 0.00 | 0.00 | 0.00 | 71 | 1013.2 |
| 20260905093129 | 80 | 205 | 1.0 | 4.0 | 0.00 | 0.00 | 0.00 | 71 | 1013.1 |
| 20260905093120 | 80 | 209 | 1.0 | 4.0 | 0.00 | 0.00 | 0.00 | 71 | 1013.1 |
| 20260905092110 | 80 | 193 | 0.0 | 4.0 | 0.00 | 0.00 | 0.00 | 70 | 1013.1 |
| 20260905091559 | 80 | 205 | 0.0 | 3.0 | 0.00 | 0.00 | 0.00 | 70 | 1013.1 |
| 20260905091049 | 80 | 219 | 0.0 | 3.0 | 0.00 | 0.00 | 0.00 | 70 | 1013.1 |
| 20260905090539 | 80 | 216 | 1.0 | 4.0 | 0.00 | 0.00 | 0.00 | 70 | 1013.2 |
| 20260905090030 | 80 | 213 | 1.0 | 4.0 | 0.00 | 0.00 | 0.00 | 70 | 1013.1 |
| 20260905085519 | 81 | 212 | 1.0 | 5.0 | 0.00 | 0.00 | 0.00 | 70 | 1013.1 |
| 20260905085009 | 81 | 241 | 1.0 | 5.0 | 0.00 | 0.00 | 0.00 | 69 | 1013.1 |
| 20260905084958 | 81 | 209 | 1.0 | 6.0 | 0.00 | 0.00 | 0.00 | 69 | 1013.0 |
| 20260905083946 | 81 | 205 | 1.0 | 6.0 | 0.00 | 0.00 | 0.00 | 69 | 1013.0 |
| 20260905083938 | 81 | 216 | 1.0 | 4.0 | 0.00 | 0.00 | 0.00 | 69 | 1013.0 |
| 20260905082927 | 81 | 174 | 1.0 | 4.0 | 0.00 | 0.00 | 0.00 | 68 | 1013.0 |
| 20260905082425 | 81 | 186 | 2.0 | 5.0 | 0.00 | 0.00 | 0.00 | 68 | 1012.9 |
| 20260905081915 | 81 | 215 | 1.0 | 5.0 | 0.00 | 0.00 | 0.00 | 68 | 1013.0 |
| 20260905081405 | 82 | 224 | 1.0 | 5.0 | 0.00 | 0.00 | 0.00 | 68 | 1013.0 |
| 20260905080855 | 82 | 199 | 1.0 | 4.0 | 0.00 | 0.00 | 0.00 | 67 | 1012.9 |
| 20260905080345 | 82 | 203 | 0.0 | 4.0 | 0.00 | 0.00 | 0.00 | 67 | 1013.0 |
| 20260905075836 | 82 | 228 | 0.0 | 2.0 | 0.00 | 0.00 | 0.00 | 67 | 1012.9 |
| 20260905075325 | 82 | 228 | 1.0 | 4.0 | 0.00 | 0.00 | 0.00 | 67 | 1013.0 |
| 20260905074815 | 82 | 194 | 1.0 | 4.0 | 0.00 | 0.00 | 0.00 | 67 | 1013.0 |
| 20260905074305 | 82 | 238 | 0.0 | 3.0 | 0.00 | 0.00 | 0.00 | 66 | 1012.8 |
| 20260905073747 | 82 | 230 | 0.0 | 2.0 | 0.00 | 0.00 | 0.00 | 66 | 1012.8 |
| 20260905073238 | 83 | 240 | 1.0 | 7.0 | 0.00 | 0.00 | 0.00 | 66 | 1012.9 |
| 20260905072727 | 83 | 246 | 1.0 | 7.0 | 0.00 | 0.00 | 0.00 | 66 | 1013.0 |
| 20260905072217 | 83 | 232 | 2.0 | 7.0 | 0.00 | 0.00 | 0.00 | 65 | 1013.0 |
| 20260905071707 | 83 | 201 | 3.0 | 7.0 | 0.00 | 0.00 | 0.00 | 65 | 1013.0 |
| 20260905071245 | 83 | 203 | 2.0 | 5.0 | 0.00 | 0.00 | 0.00 | 64 | 1013.1 |
| 20260905071157 | 83 | 142 | 2.0 | 7.0 | 0.00 | 0.00 | 0.00 | 65 | 1013.1 |
| 20260905071139 | 83 | 232 | 2.0 | 6.0 | 0.00 | 0.00 | 0.00 | 64 | 1013.2 |
| 20260905065625 | 83 | 222 | 2.0 | 8.0 | 0.00 | 0.00 | 0.00 | 64 | 1013.2 |
| 20260905065115 | 83 | 170 | 2.0 | 8.0 | 0.00 | 0.00 | 0.00 | 64 | 1013.1 |
| 20260905064605 | 84 | 213 | 2.0 | 8.0 | 0.00 | 0.00 | 0.00 | 63 | 1013.2 |
| 20260905064055 | 84 | 220 | 3.0 | 8.0 | 0.00 | 0.00 | 0.00 | 63 | 1013.3 |
| 20260905063545 | 84 | 182 | 3.0 | 8.0 | 0.00 | 0.00 | 0.00 | 63 | 1013.3 |
| 20260905063035 | 84 | 188 | 2.0 | 9.0 | 0.00 | 0.00 | 0.00 | 62 | 1013.3 |
| 20260905062526 | 84 | 174 | 3.0 | 9.0 | 0.00 | 0.00 | 0.00 | 62 | 1013.3 |
| 20260905062015 | 84 | 185 | 4.0 | 9.0 | 0.00 | 0.00 | 0.00 | 62 | 1013.3 |
| 20260905062005 | 85 | 154 | 4.0 | 9.0 | 0.00 | 0.00 | 0.00 | 62 | 1013.4 |
| 20260905060955 | 85 | 217 | 3.0 | 10.0 | 0.00 | 0.00 | 0.00 | 61 | 1013.3 |
| 20260905060445 | 85 | 187 | 3.0 | 10.0 | 0.00 | 0.00 | 0.00 | 61 | 1013.3 |
| 20260905055935 | 85 | 170 | 4.0 | 13.0 | 0.00 | 0.00 | 0.00 | 61 | 1013.3 |
| 20260905055425 | 85 | 181 | 4.0 | 13.0 | 0.00 | 0.00 | 0.00 | 61 | 1013.3 |
| 20260905054913 | 85 | 174 | 4.0 | 12.0 | 0.00 | 0.00 | 0.00 | 60 | 1013.2 |
| 20260905054403 | 85 | 225 | 5.0 | 12.0 | 0.00 | 0.00 | 0.00 | 60 | 1013.1 |
| 20260905053853 | 85 | 184 | 5.0 | 12.0 | 0.00 | 0.00 | 0.00 | 60 | 1013.0 |
| 20260905053335 | 86 | 186 | 4.0 | 12.0 | 0.00 | 0.00 | 0.00 | 59 | 1013.1 |
| 20260905052826 | 86 | 122 | 3.0 | 10.0 | 0.00 | 0.00 | 0.00 | 59 | 1013.0 |
| 20260905052315 | 86 | 168 | 4.0 | 10.0 | 0.00 | 0.00 | 0.00 | 59 | 1013.0 |
| 20260905051807 | 86 | 172 | 4.0 | 10.0 | 0.00 | 0.00 | 0.00 | 59 | 1013.1 |
| 20260905051259 | 86 | 211 | 4.0 | 11.0 | 0.00 | 0.00 | 0.00 | 58 | 1013.0 |
| 20260905050749 | 86 | 168 | 4.0 | 11.0 | 0.00 | 0.00 | 0.00 | 58 | 1013.0 |
| 20260905050243 | 86 | 181 | 5.0 | 11.0 | 0.00 | 0.00 | 0.00 | 58 | 1013.0 |
| 20260905045736 | 86 | 146 | 4.0 | 11.0 | 0.00 | 0.00 | 0.00 | 57 | 1013.0 |
| 20260905045230 | 87 | 151 | 4.0 | 11.0 | 0.00 | 0.00 | 0.00 | 57 | 1013.0 |
| 20260905044724 | 87 | 239 | 5.0 | 11.0 | 0.00 | 0.00 | 0.00 | 57 | 1013.0 |
| 20260905044230 | 87 | 199 | 5.0 | 13.0 | 0.00 | 0.00 | 0.00 | 56 | 1013.0 |
| 20260905044225 | 87 | 236 | 5.0 | 13.0 | 0.00 | 0.00 | 0.00 | 57 | 1013.0 |
| 20260905043221 | 87 | 224 | 4.0 | 9.0 | 0.00 | 0.00 | 0.00 | 56 | 1013.0 |
| 20260905042719 | 87 | 161 | 5.0 | 12.0 | 0.00 | 0.00 | 0.00 | 56 | 1013.0 |
| 20260905042214 | 87 | 186 | 4.0 | 12.0 | 0.00 | 0.00 | 0.00 | 55 | 1012.9 |
| 20260905041704 | 87 | 174 | 5.0 | 13.0 | 0.00 | 0.00 | 0.00 | 55 | 1012.8 |
| 20260905041155 | 88 | 150 | 6.0 | 13.0 | 0.00 | 0.00 | 0.00 | 55 | 1012.9 |
| 20260905040646 | 88 | 180 | 6.0 | 13.0 | 0.00 | 0.00 | 0.00 | 55 | 1012.9 |
| 20260905040135 | 88 | 166 | 5.0 | 13.0 | 0.00 | 0.00 | 0.00 | 55 | 1013.0 |
| 20260905035625 | 88 | 147 | 6.0 | 16.0 | 0.00 | 0.00 | 0.00 | 54 | 1013.0 |
| 20260905035118 | 88 | 178 | 6.0 | 16.0 | 0.00 | 0.00 | 0.00 | 54 | 1013.0 |
| 20260905034618 | 88 | 149 | 6.0 | 13.0 | 0.00 | 0.00 | 0.00 | 54 | 1013.1 |
| 20260905034107 | 89 | 176 | 6.0 | 14.0 | 0.00 | 0.00 | 0.00 | 54 | 1013.1 |
| 20260905034058 | 89 | 124 | 5.0 | 15.0 | 0.00 | 0.00 | 0.00 | 53 | 1013.1 |
| 20260905033047 | 89 | 158 | 6.0 | 11.0 | 0.00 | 0.00 | 0.00 | 53 | 1013.1 |
| 20260905032538 | 89 | 141 | 7.0 | 15.0 | 0.00 | 0.00 | 0.00 | 53 | 1013.1 |
| 20260905032028 | 89 | 146 | 5.0 | 11.0 | 0.00 | 0.00 | 0.00 | 53 | 1013.0 |
| 20260905031517 | 89 | 185 | 5.0 | 12.0 | 0.00 | 0.00 | 0.00 | 52 | 1012.9 |
| 20260905031509 | 89 | 119 | 6.0 | 12.0 | 0.00 | 0.00 | 0.00 | 52 | 1012.9 |
| 20260905030457 | 90 | 155 | 6.0 | 10.0 | 0.00 | 0.00 | 0.00 | 52 | 1012.8 |
| 20260905025947 | 90 | 136 | 6.0 | 13.0 | 0.00 | 0.00 | 0.00 | 52 | 1012.8 |
| 20260905025437 | 90 | 164 | 6.0 | 13.0 | 0.00 | 0.00 | 0.00 | 51 | 1012.8 |
| 20260905024928 | 90 | 215 | 5.0 | 11.0 | 0.00 | 0.00 | 0.00 | 50 | 1012.7 |
| 20260905024918 | 90 | 133 | 5.0 | 9.0 | 0.00 | 0.00 | 0.00 | 49 | 1012.6 |
| 20260905023908 | 91 | 120 | 4.0 | 9.0 | 0.00 | 0.00 | 0.00 | 49 | 1012.6 |
| 20260905023357 | 91 | 153 | 4.0 | 12.0 | 0.00 | 0.00 | 0.00 | 48 | 1012.4 |
| 20260905022848 | 91 | 153 | 5.0 | 13.0 | 0.00 | 0.00 | 0.00 | 48 | 1012.4 |
| 20260905022829 | 91 | 128 | 4.0 | 10.0 | 0.00 | 0.00 | 0.00 | 46 | 1012.1 |
| 20260905022434 | 91 | 136 | 5.0 | 13.0 | 0.00 | 0.00 | 0.00 | 47 | 1012.2 |
| 20260905021318 | 91 | 155 | 4.0 | 10.0 | 0.00 | 0.00 | 0.00 | 45 | 1012.0 |
| 20260905020807 | 91 | 130 | 3.0 | 13.0 | 0.00 | 0.00 | 0.00 | 45 | 1011.9 |
| 20260905020749 | 92 | 126 | 2.0 | 9.0 | 0.00 | 0.00 | 0.00 | 45 | 1011.8 |
| 20260905020354 | 92 | 141 | 3.0 | 13.0 | 0.00 | 0.00 | 0.00 | 45 | 1011.9 |
| 20260905015237 | 92 | 108 | 4.0 | 9.0 | 0.00 | 0.00 | 0.00 | 45 | 1011.7 |
| 20260905014727 | 92 | 153 | 4.0 | 10.0 | 0.00 | 0.00 | 0.00 | 45 | 1011.6 |
| 20260905014217 | 92 | 143 | 4.0 | 10.0 | 0.00 | 0.00 | 0.00 | 44 | 1011.6 |
| 20260905013707 | 92 | 122 | 4.0 | 11.0 | 0.00 | 0.00 | 0.00 | 44 | 1011.5 |
| 20260905013658 | 92 | 128 | 4.0 | 11.0 | 0.00 | 0.00 | 0.00 | 44 | 1011.4 |
| 20260905012647 | 93 | 126 | 5.0 | 13.0 | 0.00 | 0.00 | 0.00 | 43 | 1011.4 |
| 20260905012137 | 93 | 114 | 5.0 | 14.0 | 0.00 | 0.00 | 0.00 | 43 | 1011.4 |
| 20260905011627 | 93 | 122 | 5.0 | 14.0 | 0.00 | 0.00 | 0.00 | 43 | 1011.3 |
| 20260905011117 | 93 | 125 | 4.0 | 13.0 | 0.00 | 0.00 | 0.00 | 43 | 1011.3 |
| 20260905011108 | 93 | 150 | 4.0 | 13.0 | 0.00 | 0.00 | 0.00 | 43 | 1011.3 |
| 20260905010057 | 94 | 129 | 4.0 | 10.0 | 0.00 | 0.00 | 0.00 | 43 | 1011.2 |
| 20260905005547 | 94 | 164 | 4.0 | 11.0 | 0.00 | 0.00 | 0.00 | 43 | 1011.1 |
| 20260905005037 | 94 | 122 | 5.0 | 12.0 | 0.00 | 0.00 | 0.00 | 43 | 1011.0 |
| 20260905004527 | 94 | 142 | 5.0 | 13.0 | 0.00 | 0.00 | 0.00 | 43 | 1010.8 |
| 20260905004017 | 94 | 109 | 5.0 | 13.0 | 0.00 | 0.00 | 0.00 | 43 | 1010.7 |
| 20260905003507 | 94 | 141 | 5.0 | 14.0 | 0.00 | 0.00 | 0.00 | 43 | 1010.7 |
| 20260905002957 | 95 | 115 | 5.0 | 14.0 | 0.00 | 0.00 | 0.00 | 43 | 1010.6 |
| 20260905002447 | 95 | 90 | 6.0 | 13.0 | 0.00 | 0.00 | 0.00 | 42 | 1010.5 |
| 20260905001937 | 95 | 267 | 5.0 | 12.0 | 0.00 | 0.00 | 0.00 | 42 | 1010.6 |
| 20260905001427 | 95 | 83 | 4.0 | 12.0 | 0.00 | 0.00 | 0.00 | 42 | 1010.5 |
| 20260905001418 | 95 | 156 | 5.0 | 14.0 | 0.00 | 0.00 | 0.00 | 42 | 1010.5 |
| 20260905000405 | 95 | 124 | 6.0 | 14.0 | 0.00 | 0.00 | 0.00 | 42 | 1010.5 |
| 20260904235855 | 96 | 137 | 6.0 | 14.0 | 0.00 | 0.00 | 0.00 | 42 | 1010.5 |
| 20260904235345 | 96 | 134 | 6.0 | 14.0 | 0.00 | 0.00 | 0.00 | 42 | 1010.5 |
| 20260904234835 | 96 | 130 | 7.0 | 12.0 | 0.00 | 0.00 | 0.00 | 42 | 1010.5 |
| 20260904234325 | 96 | 131 | 5.0 | 14.0 | 0.00 | 0.00 | 0.00 | 41 | 1010.5 |
| 20260904233815 | 96 | 144 | 5.0 | 11.0 | 0.00 | 0.00 | 0.00 | 41 | 1010.4 |
| 20260904233305 | 96 | 126 | 5.0 | 10.0 | 0.00 | 0.00 | 0.00 | 41 | 1010.4 |
| 20260904232755 | 97 | 143 | 6.0 | 12.0 | 0.00 | 0.00 | 0.00 | 40 | 1010.4 |
| 20260904232245 | 97 | 132 | 6.0 | 12.0 | 0.00 | 0.00 | 0.00 | 40 | 1010.5 |
| 20260904232236 | 97 | 182 | 4.0 | 12.0 | 0.00 | 0.00 | 0.00 | 39 | 1010.5 |
| 20260904231226 | 97 | 140 | 5.0 | 12.0 | 0.00 | 0.00 | 0.00 | 39 | 1010.5 |
| 20260904230714 | 97 | 150 | 6.0 | 12.0 | 0.00 | 0.00 | 0.00 | 39 | 1010.5 |
| 20260904230706 | 98 | 92 | 6.0 | 14.0 | 0.00 | 0.00 | 0.00 | 38 | 1010.5 |
| 20260904225655 | 98 | 120 | 5.0 | 14.0 | 0.00 | 0.00 | 0.00 | 38 | 1010.4 |
| 20260904225145 | 98 | 174 | 6.0 | 13.0 | 0.00 | 0.00 | 0.00 | 39 | 1010.5 |
| 20260904224635 | 98 | 139 | 6.0 | 13.0 | 0.00 | 0.00 | 0.00 | 38 | 1010.5 |
| 20260904224125 | 98 | 199 | 5.0 | 11.0 | 0.00 | 0.00 | 0.00 | 38 | 1010.5 |
| 20260904223614 | 98 | 155 | 4.0 | 12.0 | 0.00 | 0.00 | 0.00 | 37 | 1010.5 |
| 20260904223606 | 98 | 182 | 4.0 | 12.0 | 0.00 | 0.00 | 0.00 | 38 | 1010.6 |
| 20260904222556 | 98 | 150 | 6.0 | 13.0 | 0.00 | 0.00 | 0.00 | 37 | 1010.6 |
| 20260904222045 | 98 | 205 | 6.0 | 13.0 | 0.00 | 0.00 | 0.00 | 37 | 1010.6 |
| 20260904221538 | 98 | 146 | 4.0 | 12.0 | 0.00 | 0.00 | 0.00 | 37 | 1010.7 |
| 20260904221027 | 99 | 122 | 4.0 | 11.0 | 0.00 | 0.00 | 0.00 | 36 | 1010.7 |
| 20260904220517 | 99 | 107 | 6.0 | 13.0 | 0.00 | 0.00 | 0.00 | 36 | 1010.7 |
| 20260904220007 | 99 | 101 | 5.0 | 13.0 | 0.00 | 0.00 | 0.00 | 37 | 1010.7 |
| 20260904215458 | 98 | 153 | 6.0 | 15.0 | 0.00 | 0.00 | 0.00 | 36 | 1010.8 |
| 20260904214947 | 99 | 170 | 7.0 | 15.0 | 0.00 | 0.00 | 0.00 | 36 | 1010.8 |
| 20260904214437 | 99 | 155 | 6.0 | 14.0 | 0.00 | 0.00 | 0.00 | 36 | 1010.8 |
| 20260904214431 | 99 | 142 | 6.0 | 14.0 | 0.00 | 0.00 | 0.00 | 36 | 1011.0 |
| 20260904213422 | 99 | 142 | 7.0 | 14.0 | 0.00 | 0.00 | 0.00 | 37 | 1011.0 |
| 20260904212909 | 99 | 111 | 8.0 | 17.0 | 0.00 | 0.00 | 0.00 | 37 | 1011.0 |
| 20260904212401 | 100 | 192 | 7.0 | 17.0 | 0.00 | 0.00 | 0.00 | 36 | 1011.1 |
| 20260904211855 | 100 | 112 | 6.0 | 10.0 | 0.00 | 0.00 | 0.00 | 37 | 1011.1 |
| 20260904211349 | 100 | 148 | 6.0 | 12.0 | 0.00 | 0.00 | 0.00 | 36 | 1011.2 |
| 20260904210844 | 100 | 179 | 6.0 | 12.0 | 0.00 | 0.00 | 0.00 | 36 | 1011.3 |
| 20260904210342 | 100 | 130 | 5.0 | 13.0 | 0.00 | 0.00 | 0.00 | 36 | 1011.4 |
| 20260904205842 | 100 | 160 | 4.0 | 13.0 | 0.00 | 0.00 | 0.00 | 37 | 1011.4 |
| 20260904205343 | 99 | 185 | 4.0 | 11.0 | 0.00 | 0.00 | 0.00 | 37 | 1011.4 |
| 20260904204339 | 100 | 182 | 5.0 | 13.0 | 0.00 | 0.00 | 0.00 | 37 | 1011.6 |
| 20260904203840 | 101 | 171 | 3.0 | 13.0 | 0.00 | 0.00 | 0.00 | 36 | 1011.7 |
| 20260904203336 | 100 | 64 | 5.0 | 16.0 | 0.00 | 0.00 | 0.00 | 38 | 1011.7 |
| 20260904202840 | 100 | 144 | 6.0 | 16.0 | 0.00 | 0.00 | 0.00 | 37 | 1011.8 |
| 20260904202836 | 100 | 245 | 7.0 | 16.0 | 0.00 | 0.00 | 0.00 | 38 | 1011.8 |
| 20260904201818 | 100 | 160 | 7.0 | 13.0 | 0.00 | 0.00 | 0.00 | 38 | 1011.8 |
| 20260904201313 | 100 | 145 | 5.0 | 13.0 | 0.00 | 0.00 | 0.00 | 37 | 1011.9 |
| 20260904200806 | 100 | 230 | 4.0 | 11.0 | 0.00 | 0.00 | 0.00 | 38 | 1012.0 |
| 20260904200301 | 100 | 262 | 4.0 | 13.0 | 0.00 | 0.00 | 0.00 | 38 | 1012.1 |
| 20260904195759 | 99 | 256 | 4.0 | 13.0 | 0.00 | 0.00 | 0.00 | 39 | 1012.2 |
| 20260904195249 | 99 | 153 | 5.0 | 12.0 | 0.00 | 0.00 | 0.00 | 39 | 1012.3 |
| 20260904194742 | 99 | 169 | 5.0 | 12.0 | 0.00 | 0.00 | 0.00 | 39 | 1012.4 |
| 20260904194237 | 98 | 151 | 6.0 | 14.0 | 0.00 | 0.00 | 0.00 | 40 | 1012.5 |
| 20260904193729 | 99 | 131 | 6.0 | 14.0 | 0.00 | 0.00 | 0.00 | 38 | 1012.6 |
| 20260904193723 | 98 | 89 | 5.0 | 14.0 | 0.00 | 0.00 | 0.00 | 39 | 1012.7 |
| 20260904192713 | 97 | 170 | 6.0 | 14.0 | 0.00 | 0.00 | 0.00 | 42 | 1012.7 |
| 20260904192203 | 97 | 284 | 7.0 | 12.0 | 0.00 | 0.00 | 0.00 | 41 | 1012.8 |
| 20260904191655 | 97 | 131 | 7.0 | 14.0 | 0.00 | 0.00 | 0.00 | 40 | 1012.8 |
| 20260904191148 | 97 | 124 | 5.0 | 12.0 | 0.00 | 0.00 | 0.00 | 42 | 1012.9 |
| 20260904190641 | 97 | 139 | 4.0 | 10.0 | 0.00 | 0.00 | 0.00 | 42 | 1012.9 |
| 20260904190132 | 97 | 143 | 5.0 | 14.0 | 0.00 | 0.00 | 0.00 | 43 | 1013.0 |
| 20260904190126 | 95 | 199 | 6.0 | 14.0 | 0.00 | 0.00 | 0.00 | 44 | 1013.1 |
| 20260904185120 | 95 | 145 | 6.0 | 14.0 | 0.00 | 0.00 | 0.00 | 45 | 1013.2 |
| 20260904184614 | 96 | 124 | 6.0 | 14.0 | 0.00 | 0.00 | 0.00 | 44 | 1013.2 |
| 20260904184105 | 97 | 232 | 5.0 | 13.0 | 0.00 | 0.00 | 0.00 | 44 | 1013.2 |
| 20260904183559 | 96 | 120 | 5.0 | 11.0 | 0.00 | 0.00 | 0.00 | 44 | 1013.3 |
| 20260904183049 | 95 | 202 | 5.0 | 13.0 | 0.00 | 0.00 | 0.00 | 46 | 1013.4 |
| 20260904182537 | 95 | 135 | 4.0 | 10.0 | 0.00 | 0.00 | 0.00 | 45 | 1013.4 |
| 20260904182028 | 95 | 153 | 4.0 | 10.0 | 0.00 | 0.00 | 0.00 | 46 | 1013.4 |
| 20260904182019 | 96 | 272 | 5.0 | 9.0 | 0.00 | 0.00 | 0.00 | 45 | 1013.5 |
| 20260904181508 | 95 | 150 | 6.0 | 14.0 | 0.00 | 0.00 | 0.00 | 46 | 1013.6 |
| 20260904180951 | 96 | 234 | 4.0 | 11.0 | 0.00 | 0.00 | 0.00 | 47 | 1013.7 |
| 20260904180556 | 95 | 194 | 5.0 | 14.0 | 0.00 | 0.00 | 0.00 | 46 | 1013.6 |
| 20260904175438 | 95 | 159 | 4.0 | 11.0 | 0.00 | 0.00 | 0.00 | 48 | 1013.7 |
| 20260904175429 | 93 | 116 | 4.0 | 12.0 | 0.00 | 0.00 | 0.00 | 50 | 1013.8 |
| 20260904174419 | 93 | 197 | 4.0 | 12.0 | 0.00 | 0.00 | 0.00 | 50 | 1013.9 |
| 20260904173908 | 94 | 207 | 3.0 | 9.0 | 0.00 | 0.00 | 0.00 | 48 | 1013.9 |
| 20260904173358 | 94 | 117 | 2.0 | 9.0 | 0.00 | 0.00 | 0.00 | 48 | 1014.0 |
| 20260904172848 | 92 | 203 | 2.0 | 9.0 | 0.00 | 0.00 | 0.00 | 51 | 1014.1 |
| 20260904172820 | 92 | 193 | 2.0 | 9.0 | 0.00 | 0.00 | 0.00 | 51 | 1014.2 |
| 20260904172423 | 92 | 222 | 2.0 | 11.0 | 0.00 | 0.00 | 0.00 | 52 | 1014.2 |
| 20260904171308 | 92 | 281 | 3.0 | 8.0 | 0.00 | 0.00 | 0.00 | 51 | 1014.2 |
| 20260904170759 | 92 | 191 | 3.0 | 10.0 | 0.00 | 0.00 | 0.00 | 51 | 1014.4 |
| 20260904170248 | 92 | 252 | 4.0 | 11.0 | 0.00 | 0.00 | 0.00 | 49 | 1014.4 |
| 20260904165744 | 93 | 209 | 4.0 | 11.0 | 0.00 | 0.00 | 0.00 | 46 | 1014.4 |
| 20260904165234 | 93 | 236 | 4.0 | 10.0 | 0.00 | 0.00 | 0.00 | 48 | 1014.3 |
| 20260904164724 | 92 | 180 | 3.0 | 10.0 | 0.00 | 0.00 | 0.00 | 52 | 1014.4 |
| 20260904164206 | 91 | 209 | 3.0 | 7.0 | 0.00 | 0.00 | 0.00 | 53 | 1014.5 |
| 20260904163656 | 92 | 167 | 4.0 | 11.0 | 0.00 | 0.00 | 0.00 | 50 | 1014.5 |
| 20260904163146 | 92 | 207 | 4.0 | 11.0 | 0.00 | 0.00 | 0.00 | 51 | 1014.5 |
| 20260904162636 | 92 | 209 | 3.0 | 9.0 | 0.00 | 0.00 | 0.00 | 52 | 1014.5 |
| 20260904162126 | 92 | 291 | 3.0 | 9.0 | 0.00 | 0.00 | 0.00 | 54 | 1014.4 |
| 20260904161615 | 91 | 172 | 3.0 | 9.0 | 0.00 | 0.00 | 0.00 | 55 | 1014.4 |
| 20260904161106 | 89 | 246 | 2.0 | 9.0 | 0.00 | 0.00 | 0.00 | 60 | 1014.5 |
| 20260904160556 | 89 | 201 | 4.0 | 11.0 | 0.00 | 0.00 | 0.00 | 61 | 1014.4 |
| 20260904160047 | 88 | 219 | 5.0 | 11.0 | 0.00 | 0.00 | 0.00 | 62 | 1014.5 |
| 20260904155536 | 89 | 226 | 5.0 | 12.0 | 0.00 | 0.00 | 0.00 | 61 | 1014.6 |
| 20260904155020 | 88 | 144 | 6.0 | 12.0 | 0.00 | 0.00 | 0.00 | 62 | 1014.4 |
| 20260904154502 | 88 | 168 | 5.0 | 10.0 | 0.00 | 0.00 | 0.00 | 60 | 1014.5 |
| 20260904153952 | 89 | 122 | 5.0 | 13.0 | 0.00 | 0.00 | 0.00 | 60 | 1014.4 |
| 20260904153434 | 88 | 256 | 5.0 | 13.0 | 0.00 | 0.00 | 0.00 | 62 | 1014.4 |
| 20260904152924 | 88 | 222 | 4.0 | 12.0 | 0.00 | 0.00 | 0.00 | 62 | 1014.3 |
| 20260904152915 | 87 | 205 | 4.0 | 12.0 | 0.00 | 0.00 | 0.00 | 63 | 1014.3 |
| 20260904151856 | 87 | 282 | 3.0 | 11.0 | 0.00 | 0.00 | 0.00 | 63 | 1014.3 |
| 20260904151346 | 87 | 218 | 4.0 | 11.0 | 0.00 | 0.00 | 0.00 | 64 | 1014.3 |
| 20260904150836 | 86 | 234 | 5.0 | 11.0 | 0.00 | 0.00 | 0.00 | 65 | 1014.3 |
| 20260904150326 | 86 | 243 | 5.0 | 11.0 | 0.00 | 0.00 | 0.00 | 65 | 1014.3 |
| 20260904145816 | 85 | 184 | 5.0 | 11.0 | 0.00 | 0.00 | 0.00 | 68 | 1014.3 |
| 20260904145306 | 85 | 209 | 5.0 | 11.0 | 0.00 | 0.00 | 0.00 | 69 | 1014.4 |
| 20260904144757 | 84 | 177 | 4.0 | 13.0 | 0.00 | 0.00 | 0.00 | 70 | 1014.4 |
| 20260904144246 | 85 | 186 | 4.0 | 13.0 | 0.00 | 0.00 | 0.00 | 72 | 1014.4 |
| 20260904143736 | 83 | 165 | 5.0 | 14.0 | 0.00 | 0.00 | 0.00 | 74 | 1014.4 |
| 20260904143226 | 83 | 149 | 4.0 | 14.0 | 0.00 | 0.00 | 0.00 | 74 | 1014.4 |
| 20260904142716 | 83 | 165 | 4.0 | 10.0 | 0.00 | 0.00 | 0.00 | 75 | 1014.4 |
| 20260904142207 | 82 | 160 | 5.0 | 10.0 | 0.00 | 0.00 | 0.00 | 76 | 1014.4 |
| 20260904141656 | 81 | 214 | 5.0 | 12.0 | 0.00 | 0.00 | 0.00 | 77 | 1014.4 |
| 20260904141147 | 81 | 130 | 5.0 | 12.0 | 0.00 | 0.00 | 0.00 | 77 | 1014.5 |
| 20260904140636 | 81 | 206 | 5.0 | 11.0 | 0.00 | 0.00 | 0.00 | 78 | 1014.5 |
| 20260904140619 | 80 | 183 | 5.0 | 9.0 | 0.00 | 0.00 | 0.00 | 80 | 1014.4 |
| 20260904140223 | 80 | 161 | 4.0 | 9.0 | 0.00 | 0.00 | 0.00 | 79 | 1014.4 |
| 20260904135106 | 79 | 146 | 5.0 | 9.0 | 0.00 | 0.00 | 0.00 | 81 | 1014.3 |
| 20260904134554 | 79 | 152 | 4.0 | 10.0 | 0.00 | 0.00 | 0.00 | 81 | 1014.3 |
| 20260904134044 | 79 | 158 | 4.0 | 10.0 | 0.00 | 0.00 | 0.00 | 81 | 1014.2 |
| 20260904133533 | 78 | 167 | 4.0 | 9.0 | 0.00 | 0.00 | 0.00 | 81 | 1014.2 |
| 20260904133021 | 78 | 133 | 4.0 | 9.0 | 0.00 | 0.00 | 0.00 | 81 | 1014.2 |
| 20260904132504 | 78 | 141 | 3.0 | 9.0 | 0.00 | 0.00 | 0.00 | 81 | 1014.1 |